Change the Weather History Date:

Wednesday, October 24, 2012

  Actual Average Record
Temperature  
Mean Temperature 51 °F 51 °F  
Max Temperature 62 °F 67 °F 87 °F (2014)
Min Temperature 39 °F 35 °F 21 °F (1980)
Degree Days  
Heating Degree Days 14 14  
Month to date heating degree days 230 240  
Since 1 July heating degree days 260 313  
Cooling Degree Days 0 0  
Month to date cooling degree days 3 7  
Year to date cooling degree days 1733 1223  
Growing Degree Days 2 (Base 50)    
Moisture  
Dew Point 37 °F    
Average Humidity 51    
Maximum Humidity 82    
Minimum Humidity 20    
Precipitation  
Precipitation 0.00 in 0.03 in 0.17 in (1997)
Month to date precipitation 0.25 0.73  
Year to date precipitation 5.51 10.64  
Sea Level Pressure  
Sea Level Pressure 29.73 in    
Wind  
Wind Speed 13 mph (NE)    
Max Wind Speed 37 mph    
Max Gust Speed 43 mph    
Visibility 10 miles    
Events      
T = Trace of Precipitation, MM = Missing Value Source: NWS Daily Summary

Daily Weather History Graph

Daily Weather History Graph

Search for Another Location

Airport or City:

Trip Planner

Search our weather history database for the weather conditions in past years. The results will help you decide how hot, cold, wet, or windy it might be!

Date:

Astronomy

Oct. 24, 2012 Rise Set
Actual Time 7:12 AM MDT 6:03 PM MDT
Civil Twilight 6:45 AM MDT 6:30 PM MDT
Nautical Twilight 6:14 AM MDT 7:01 PM MDT
Astronomical Twilight 5:43 AM MDT 7:31 PM MDT
Moon 3:16 PM MDT (10/24) 2:14 AM MDT (10/24)
Length of Visible Light 11h 45m
Length of Day
10h 51m
Waxing Gibbous, 76% of the Moon is Illuminated
Oct 24
Waxing Gibbous
Oct 29
Full
Nov 6
Last Quarter
Nov 13
New
Nov 20
First Quarter

Hourly Weather History & Observations

Time (MDT) Temp. Windchill Dew Point Humidity Pressure Visibility Wind Dir Wind Speed Gust Speed Precip Events Conditions
12:53 AM 55.9 °F - 16.0 °F 21% 29.60 in 10.0 mi West 3.5 mph - N/A   Clear
1:53 AM 53.1 °F - 17.1 °F 24% 29.60 in 10.0 mi West 9.2 mph - N/A   Clear
2:53 AM 48.9 °F - 27.0 °F 43% 29.65 in 10.0 mi North 10.4 mph - N/A   Clear
3:53 AM 48.0 °F - 33.1 °F 56% 29.66 in 10.0 mi North 10.4 mph - N/A   Clear
4:53 AM 48.0 °F - 37.9 °F 68% 29.68 in 10.0 mi North 15.0 mph - N/A   Clear
5:53 AM 46.0 °F 43.1 °F 39.0 °F 76% 29.73 in 10.0 mi NNE 5.8 mph - N/A   Clear
6:53 AM 44.1 °F 42.5 °F 37.9 °F 79% 29.76 in 10.0 mi NNE 3.5 mph - N/A   Clear
7:53 AM 42.1 °F 37.7 °F 37.0 °F 82% 29.78 in 10.0 mi ENE 6.9 mph - N/A   Clear
8:53 AM 48.0 °F - 39.0 °F 71% 29.78 in 10.0 mi ENE 8.1 mph - N/A   Partly Cloudy
9:27 AM 48.2 °F - 39.2 °F 71% 29.90 in 10.0 mi East 4.6 mph - N/A   Mostly Cloudy
9:39 AM 50.0 °F - 39.2 °F 66% 29.90 in 10.0 mi ENE 8.1 mph - N/A   Scattered Clouds
9:53 AM 50.0 °F - 39.9 °F 68% 29.78 in 10.0 mi ENE 6.9 mph - N/A   Partly Cloudy
10:08 AM 50.0 °F - 39.2 °F 66% 29.90 in 10.0 mi East 6.9 mph - N/A   Mostly Cloudy
10:53 AM 51.1 °F - 39.9 °F 66% 29.78 in 10.0 mi SE 8.1 mph - N/A   Mostly Cloudy
11:42 AM 53.6 °F - 39.2 °F 58% 29.86 in 10.0 mi East 5.8 mph - N/A   Scattered Clouds
11:53 AM 55.0 °F - 39.9 °F 57% 29.75 in 10.0 mi Variable 4.6 mph - N/A   Partly Cloudy
12:53 PM 57.0 °F - 39.9 °F 53% 29.71 in 10.0 mi East 8.1 mph - N/A   Clear
3:53 PM 61.0 °F - 39.0 °F 44% 29.55 in 10.0 mi ESE 15.0 mph - N/A   Clear
4:53 PM 61.0 °F - 39.9 °F 46% 29.53 in 10.0 mi East 17.3 mph - N/A   Clear
5:53 PM 57.0 °F - 39.9 °F 53% 29.53 in 10.0 mi East 16.1 mph - N/A   Clear
6:53 PM 54.0 °F - 39.9 °F 59% 29.56 in 10.0 mi ENE 15.0 mph - N/A   Clear
7:53 PM 52.0 °F - 42.1 °F 69% 29.64 in 10.0 mi NE 19.6 mph - N/A   Clear
8:53 PM 51.1 °F - 43.0 °F 74% 29.70 in 10.0 mi NNE 18.4 mph 31.1 mph N/A   Mostly Cloudy
9:53 PM 52.0 °F - 42.1 °F 69% 29.74 in 10.0 mi North 18.4 mph - N/A   Overcast
10:35 PM 51.8 °F - 42.8 °F 71% 29.86 in 10.0 mi NNW 27.6 mph 33.4 mph N/A   Overcast
10:53 PM 44.1 °F 33.5 °F 37.9 °F 79% 29.83 in 8.0 mi North 33.4 mph 42.6 mph N/A   Overcast
11:39 PM 42.8 °F 32.1 °F 32.0 °F 66% 29.92 in 10.0 mi North 31.1 mph 42.6 mph N/A   Overcast
11:53 PM 41.0 °F 30.2 °F 30.9 °F 67% 29.86 in 10.0 mi North 27.6 mph 40.3 mph N/A   Overcast